Time,TemperatureF,DewpointF,PressureIn,WindDirection,WindDirectionDegrees,WindSpeedMPH,WindSpeedGustMPH,Humidity,HourlyPrecipIn,Conditions,Clouds,dailyrainin,SolarRadiationWatts/m^2,SoftwareType,DateUTC
2013-04-09 00:12:00,74.0,61.0,30.09,ENE,64,14.0,25.0,65,0.00,,,0.00,0.000000,,2013-04-09 10:12:00,
2013-04-09 00:23:00,74.0,61.0,30.09,ENE,64,14.0,25.0,65,0.00,,,0.00,0.000000,,2013-04-09 10:23:00,
2013-04-09 00:32:00,74.0,61.0,30.09,ENE,64,14.0,25.0,65,0.00,,,0.00,0.000000,,2013-04-09 10:32:00,
2013-04-09 00:42:00,74.0,61.0,30.09,ENE,64,14.0,25.0,65,0.00,,,0.00,0.000000,,2013-04-09 10:42:00,
2013-04-09 00:52:00,74.0,61.0,30.09,ENE,64,14.0,25.0,65,0.00,,,0.00,0.000000,,2013-04-09 10:52:00,
2013-04-09 01:12:00,73.0,63.0,30.07,ENE,62,14.0,23.0,70,0.00,,,0.00,0.000000,,2013-04-09 11:12:00,
2013-04-09 01:22:00,73.0,63.0,30.07,ENE,62,14.0,23.0,70,0.00,,,0.00,0.000000,,2013-04-09 11:22:00,
2013-04-09 01:32:00,73.0,63.0,30.07,ENE,62,14.0,23.0,70,0.00,,,0.00,0.000000,,2013-04-09 11:32:00,
2013-04-09 01:42:00,73.0,63.0,30.07,ENE,62,14.0,23.0,70,0.00,,,0.00,0.000000,,2013-04-09 11:42:00,
2013-04-09 01:51:00,73.0,63.0,30.07,ENE,62,14.0,23.0,70,0.00,,,0.00,0.000000,,2013-04-09 11:51:00,
2013-04-09 02:12:00,74.0,64.0,30.06,NNE,33,9.0,22.0,71,0.00,,,0.00,0.000000,,2013-04-09 12:12:00,
2013-04-09 02:22:00,74.0,64.0,30.06,NNE,33,9.0,22.0,71,0.00,,,0.00,0.000000,,2013-04-09 12:22:00,
2013-04-09 02:32:00,74.0,64.0,30.06,NNE,33,9.0,22.0,71,0.00,,,0.00,0.000000,,2013-04-09 12:32:00,
2013-04-09 02:42:00,74.0,64.0,30.06,NNE,33,9.0,22.0,71,0.00,,,0.00,0.000000,,2013-04-09 12:42:00,
2013-04-09 02:52:00,74.0,64.0,30.06,NNE,33,9.0,22.0,71,0.00,,,0.00,0.000000,,2013-04-09 12:52:00,
2013-04-09 03:12:00,72.0,62.0,30.03,NE,38,9.0,24.0,71,0.00,,,0.00,0.000000,,2013-04-09 13:12:00,
2013-04-09 03:22:00,72.0,62.0,30.03,NE,38,9.0,24.0,71,0.00,,,0.00,0.000000,,2013-04-09 13:22:00,
2013-04-09 03:32:00,72.0,62.0,30.03,NE,38,9.0,24.0,71,0.00,,,0.00,0.000000,,2013-04-09 13:32:00,
2013-04-09 03:42:00,72.0,62.0,30.03,NE,38,9.0,24.0,71,0.00,,,0.00,0.000000,,2013-04-09 13:42:00,
2013-04-09 03:52:00,72.0,62.0,30.03,NE,38,9.0,24.0,71,0.00,,,0.00,0.000000,,2013-04-09 13:52:00,
2013-04-09 04:12:00,71.0,61.0,30.01,NE,48,14.0,30.0,71,0.00,,,0.00,0.000000,,2013-04-09 14:12:00,
2013-04-09 04:22:00,71.0,61.0,30.01,NE,48,14.0,30.0,71,0.00,,,0.00,0.000000,,2013-04-09 14:22:00,
2013-04-09 04:32:00,71.0,61.0,30.01,NE,48,14.0,30.0,71,0.00,,,0.00,0.000000,,2013-04-09 14:32:00,
2013-04-09 04:42:00,71.0,61.0,30.01,NE,48,14.0,30.0,71,0.00,,,0.00,0.000000,,2013-04-09 14:42:00,
2013-04-09 04:51:00,71.0,61.0,30.01,NE,48,14.0,30.0,71,0.00,,,0.00,0.000000,,2013-04-09 14:51:00,
2013-04-09 05:22:00,73.0,61.0,30.02,NNE,26,6.0,21.0,66,0.00,,,0.00,0.000000,,2013-04-09 15:22:00,
2013-04-09 05:33:00,73.0,61.0,30.02,NNE,26,6.0,21.0,66,0.00,,,0.00,0.000000,,2013-04-09 15:33:00,
2013-04-09 05:42:00,73.0,61.0,30.02,NNE,26,6.0,21.0,66,0.00,,,0.00,0.000000,,2013-04-09 15:42:00,
2013-04-09 05:52:00,73.0,61.0,30.02,NNE,26,6.0,21.0,66,0.00,,,0.00,0.000000,,2013-04-09 15:52:00,
2013-04-09 06:13:00,73.0,63.0,30.02,ENE,57,13.0,23.0,70,0.00,,,0.00,0.000000,,2013-04-09 16:13:00,
2013-04-09 06:23:00,73.0,63.0,30.02,ENE,57,13.0,23.0,70,0.00,,,0.00,0.000000,,2013-04-09 16:23:00,
2013-04-09 06:33:00,73.0,63.0,30.02,ENE,57,13.0,23.0,70,0.00,,,0.00,0.000000,,2013-04-09 16:33:00,
2013-04-09 06:42:00,73.0,63.0,30.02,ENE,57,13.0,23.0,70,0.00,,,0.00,0.000000,,2013-04-09 16:42:00,
2013-04-09 06:52:00,73.0,63.0,30.02,ENE,57,13.0,23.0,70,0.00,,,0.00,0.000000,,2013-04-09 16:52:00,
2013-04-09 06:53:00,74.0,64.0,30.02,ENE,58,14.0,25.0,70,0.00,,,0.00,24.000000,,2013-04-09 16:53:00,
2013-04-09 07:23:00,74.0,64.0,30.02,ENE,58,14.0,25.0,70,0.00,,,0.00,24.000000,,2013-04-09 17:23:00,
2013-04-09 07:32:00,74.0,64.0,30.02,ENE,58,14.0,25.0,70,0.00,,,0.00,24.000000,,2013-04-09 17:32:00,
2013-04-09 07:42:00,74.0,64.0,30.02,ENE,58,14.0,25.0,70,0.00,,,0.00,24.000000,,2013-04-09 17:42:00,
2013-04-09 08:12:00,77.0,66.0,30.04,ENE,62,16.0,30.0,68,0.00,,,0.00,198.000000,,2013-04-09 18:12:00,
2013-04-09 08:22:00,77.0,66.0,30.04,ENE,62,16.0,30.0,68,0.00,,,0.00,198.000000,,2013-04-09 18:22:00,
2013-04-09 08:32:00,77.0,66.0,30.04,ENE,62,16.0,30.0,68,0.00,,,0.00,198.000000,,2013-04-09 18:32:00,
2013-04-09 08:42:00,77.0,66.0,30.04,ENE,62,16.0,30.0,68,0.00,,,0.00,198.000000,,2013-04-09 18:42:00,
2013-04-09 08:52:00,77.0,66.0,30.04,ENE,62,16.0,30.0,68,0.00,,,0.00,198.000000,,2013-04-09 18:52:00,
2013-04-09 10:12:00,80.0,60.0,30.05,ENE,59,19.0,29.0,50,-99.99,,,0.00,819.000000,,2013-04-09 20:12:00,
2013-04-09 10:22:00,80.0,60.0,30.05,ENE,59,19.0,29.0,50,-99.99,,,0.00,819.000000,,2013-04-09 20:22:00,
2013-04-09 10:33:00,80.0,60.0,30.05,ENE,59,19.0,29.0,50,-99.99,,,0.00,819.000000,,2013-04-09 20:33:00,
2013-04-09 10:42:00,80.0,60.0,30.05,ENE,59,19.0,29.0,50,-99.99,,,0.00,819.000000,,2013-04-09 20:42:00,
2013-04-09 10:52:00,80.0,60.0,30.05,ENE,59,19.0,29.0,50,-99.99,,,0.00,819.000000,,2013-04-09 20:52:00,
2013-04-09 12:23:00,85.0,61.0,30.04,ENE,67,16.0,32.0,44,-99.99,,,0.00,1158.000000,,2013-04-09 22:23:00,
2013-04-09 12:33:00,85.0,61.0,30.04,ENE,67,16.0,32.0,44,-99.99,,,0.00,1158.000000,,2013-04-09 22:33:00,
2013-04-09 12:42:00,85.0,61.0,30.04,ENE,67,16.0,32.0,44,-99.99,,,0.00,1158.000000,,2013-04-09 22:42:00,
2013-04-09 12:52:00,85.0,61.0,30.04,ENE,67,16.0,32.0,44,-99.99,,,0.00,1158.000000,,2013-04-09 22:52:00,
2013-04-09 13:22:00,82.0,64.0,30.01,ENE,75,21.0,35.0,54,0.00,,,0.00,1207.000000,,2013-04-09 23:22:00,
2013-04-09 13:32:00,82.0,64.0,30.01,ENE,75,21.0,35.0,54,0.00,,,0.00,1207.000000,,2013-04-09 23:32:00,
2013-04-09 13:42:00,82.0,64.0,30.01,ENE,75,21.0,35.0,54,0.00,,,0.00,1207.000000,,2013-04-09 23:42:00,
2013-04-09 13:52:00,82.0,64.0,30.01,ENE,75,21.0,35.0,54,0.00,,,0.00,1207.000000,,2013-04-09 23:52:00,
2013-04-09 14:22:00,82.0,65.0,30.00,East,79,21.0,33.0,56,0.00,,,0.00,1183.000000,,2013-04-10 00:22:00,
2013-04-09 14:32:00,82.0,65.0,30.00,East,79,21.0,33.0,56,0.00,,,0.00,1183.000000,,2013-04-10 00:32:00,
2013-04-09 14:42:00,82.0,65.0,30.00,East,79,21.0,33.0,56,0.00,,,0.00,1183.000000,,2013-04-10 00:42:00,
2013-04-09 14:51:00,82.0,65.0,30.00,East,79,21.0,33.0,56,0.00,,,0.00,1183.000000,,2013-04-10 00:51:00,
2013-04-09 15:22:00,83.0,64.0,29.99,ENE,74,18.0,31.0,53,0.00,,,0.00,1025.000000,,2013-04-10 01:22:00,
2013-04-09 15:32:00,83.0,64.0,29.99,ENE,74,18.0,31.0,53,0.00,,,0.00,1025.000000,,2013-04-10 01:32:00,
2013-04-09 15:42:00,83.0,64.0,29.99,ENE,74,18.0,31.0,53,0.00,,,0.00,1025.000000,,2013-04-10 01:42:00,
2013-04-09 15:52:00,83.0,64.0,29.99,ENE,74,18.0,31.0,53,0.00,,,0.00,1025.000000,,2013-04-10 01:52:00,
2013-04-09 16:12:00,82.0,64.0,29.99,ENE,74,19.0,31.0,55,0.00,,,0.00,870.000000,,2013-04-10 02:12:00,
2013-04-09 16:22:00,82.0,64.0,29.99,ENE,74,19.0,31.0,55,0.00,,,0.00,870.000000,,2013-04-10 02:22:00,
2013-04-09 16:32:00,82.0,64.0,29.99,ENE,74,19.0,31.0,55,0.00,,,0.00,870.000000,,2013-04-10 02:32:00,
2013-04-09 16:42:00,82.0,64.0,29.99,ENE,74,19.0,31.0,55,0.00,,,0.00,870.000000,,2013-04-10 02:42:00,
2013-04-09 16:51:00,82.0,64.0,29.99,ENE,74,19.0,31.0,55,0.00,,,0.00,870.000000,,2013-04-10 02:51:00,
2013-04-09 17:12:00,82.0,62.0,29.98,ENE,69,15.0,32.0,51,0.00,,,-99.99,608.000000,,2013-04-10 03:12:00,
2013-04-09 17:22:00,82.0,62.0,29.98,ENE,69,15.0,32.0,51,0.00,,,-99.99,608.000000,,2013-04-10 03:22:00,
2013-04-09 17:32:00,82.0,62.0,29.98,ENE,69,15.0,32.0,51,0.00,,,-99.99,608.000000,,2013-04-10 03:32:00,
2013-04-09 17:43:00,82.0,62.0,29.98,ENE,69,15.0,32.0,51,0.00,,,-99.99,608.000000,,2013-04-10 03:43:00,
2013-04-09 17:52:00,82.0,62.0,29.98,ENE,69,15.0,32.0,51,0.00,,,-99.99,608.000000,,2013-04-10 03:52:00,
2013-04-09 18:13:00,78.0,63.0,30.01,ENE,72,15.0,29.0,60,0.00,,,0.00,206.000000,,2013-04-10 04:13:00,
2013-04-09 18:23:00,78.0,63.0,30.01,ENE,72,15.0,29.0,60,0.00,,,0.00,206.000000,,2013-04-10 04:23:00,
2013-04-09 18:33:00,78.0,63.0,30.01,ENE,72,15.0,29.0,60,0.00,,,0.00,206.000000,,2013-04-10 04:33:00,
2013-04-09 18:42:00,78.0,63.0,30.01,ENE,72,15.0,29.0,60,0.00,,,0.00,206.000000,,2013-04-10 04:42:00,
2013-04-09 18:52:00,78.0,63.0,30.01,ENE,72,15.0,29.0,60,0.00,,,0.00,206.000000,,2013-04-10 04:52:00,
2013-04-09 19:13:00,75.0,61.0,30.03,ENE,63,12.0,24.0,61,0.00,,,0.00,22.000000,,2013-04-10 05:13:00,
2013-04-09 19:22:00,75.0,61.0,30.03,ENE,63,12.0,24.0,61,0.00,,,0.00,22.000000,,2013-04-10 05:22:00,
2013-04-09 19:32:00,75.0,61.0,30.03,ENE,63,12.0,24.0,61,0.00,,,0.00,22.000000,,2013-04-10 05:32:00,
2013-04-09 19:42:00,75.0,61.0,30.03,ENE,63,12.0,24.0,61,0.00,,,0.00,22.000000,,2013-04-10 05:42:00,
2013-04-09 19:52:00,75.0,61.0,30.03,ENE,63,12.0,24.0,61,0.00,,,0.00,22.000000,,2013-04-10 05:52:00,
2013-04-09 20:12:00,76.0,61.0,30.04,NE,50,13.0,25.0,60,0.00,,,0.00,0.000000,,2013-04-10 06:12:00,
2013-04-09 20:22:00,76.0,61.0,30.04,NE,50,13.0,25.0,60,0.00,,,0.00,0.000000,,2013-04-10 06:22:00,
2013-04-09 20:32:00,76.0,61.0,30.04,NE,50,13.0,25.0,60,0.00,,,0.00,0.000000,,2013-04-10 06:32:00,
2013-04-09 20:42:00,76.0,61.0,30.04,NE,50,13.0,25.0,60,0.00,,,0.00,0.000000,,2013-04-10 06:42:00,
2013-04-09 20:52:00,76.0,61.0,30.04,NE,50,13.0,25.0,60,0.00,,,0.00,0.000000,,2013-04-10 06:52:00,
2013-04-09 21:22:00,75.0,60.0,30.05,ENE,69,21.0,34.0,59,0.00,,,0.00,0.000000,,2013-04-10 07:22:00,
2013-04-09 21:32:00,75.0,60.0,30.05,ENE,69,21.0,34.0,59,0.00,,,0.00,0.000000,,2013-04-10 07:32:00,
2013-04-09 21:42:00,75.0,60.0,30.05,ENE,69,21.0,34.0,59,0.00,,,0.00,0.000000,,2013-04-10 07:42:00,
2013-04-09 21:52:00,75.0,60.0,30.05,ENE,69,21.0,34.0,59,0.00,,,0.00,0.000000,,2013-04-10 07:52:00,
2013-04-09 22:22:00,74.0,64.0,30.08,ENE,61,18.0,33.0,70,0.00,,,0.00,0.000000,,2013-04-10 08:22:00,
2013-04-09 22:32:00,74.0,64.0,30.08,ENE,61,18.0,33.0,70,0.00,,,0.00,0.000000,,2013-04-10 08:32:00,
2013-04-09 22:42:00,74.0,64.0,30.08,ENE,61,18.0,33.0,70,0.00,,,0.00,0.000000,,2013-04-10 08:42:00,
2013-04-09 22:52:00,74.0,64.0,30.08,ENE,61,18.0,33.0,70,0.00,,,0.00,0.000000,,2013-04-10 08:52:00,
2013-04-09 23:22:00,74.0,64.0,30.09,ENE,63,18.0,34.0,70,0.00,,,0.00,0.000000,,2013-04-10 09:22:00,
2013-04-09 23:32:00,74.0,64.0,30.09,ENE,63,18.0,34.0,70,0.00,,,0.00,0.000000,,2013-04-10 09:32:00,
2013-04-09 23:42:00,74.0,64.0,30.09,ENE,63,18.0,34.0,70,0.00,,,0.00,0.000000,,2013-04-10 09:42:00,
2013-04-09 23:52:00,74.0,64.0,30.09,ENE,63,18.0,34.0,70,0.00,,,0.00,0.000000,,2013-04-10 09:52:00,